CW2550 Weather Reports


Display with metric or nautical units.
time (UTC)temp
F
wind
direction
speed
MPH
gust
MPH
rain 1hr
in
rain 24hr
in
rain mn
in
humidity
%
barometer
mb
20260503033053 58 169 4.0 9.0 0.00 0.00 0.00 46 1009.1
20260503031543 58 182 4.0 8.0 0.00 0.00 0.00 46 1009.4
20260503030039 59 202 4.0 7.0 0.00 0.00 0.00 45 1009.9
20260503024551 60 189 3.0 10.0 0.00 0.00 0.00 45 1010.0
20260503023046 60 217 2.0 10.0 0.00 0.00 0.00 44 1010.2
20260503021541 60 279 5.0 11.0 0.00 0.00 0.00 45 1010.3
20260503020045 60 209 2.0 20.0 0.00 0.00 0.00 45 1010.3
20260503014602 60 219 8.0 14.0 0.00 0.00 0.00 44 1010.6
20260503013038 60 211 4.0 10.0 0.00 0.00 0.00 43 1010.4
20260503011552 61 209 4.0 20.0 0.00 0.00 0.00 43 1010.5
20260503010044 60 196 5.0 19.0 0.00 0.00 0.00 45 1010.5
20260503004541 61 245 2.0 9.0 0.00 0.00 0.00 41 1010.6
20260503003042 61 208 5.0 26.0 0.00 0.00 0.00 41 1010.6
20260503001544 62 202 6.0 11.0 0.00 0.00 0.00 38 1010.3
20260503000041 63 209 4.0 9.0 0.00 0.00 0.00 37 1010.4
20260502234603 63 217 6.0 16.0 0.00 0.00 0.00 36 1010.4
20260502233042 63 194 6.0 16.0 0.00 0.00 0.00 36 1010.6
20260502231541 63 192 6.0 13.0 0.00 0.00 0.00 36 1010.8
20260502230042 63 216 6.0 14.0 0.00 0.00 0.00 35 1010.8
20260502224543 64 182 5.0 18.0 0.00 0.00 0.00 35 1011.1
20260502223058 63 198 8.0 18.0 0.00 0.00 0.00 35 1011.1
20260502221544 64 211 5.0 14.0 0.00 0.00 0.00 34 1011.4
20260502220057 64 287 5.0 16.0 0.00 0.00 0.00 33 1011.6
20260502214549 64 244 3.0 16.0 0.00 0.00 0.00 33 1011.8
20260502213051 63 218 6.0 16.0 0.00 0.00 0.00 34 1011.9
20260502211552 63 251 8.0 17.0 0.00 0.00 0.00 34 1012.3
20260502210051 63 258 5.0 12.0 0.00 0.00 0.00 35 1012.6
20260502204544 63 349 6.0 14.0 0.00 0.00 0.00 36 1012.8
20260502203055 62 233 4.0 14.0 0.00 0.00 0.00 35 1013.0
20260502201543 61 210 8.0 17.0 0.00 0.00 0.00 35 1013.3
20260502200051 61 215 7.0 15.0 0.00 0.00 0.00 35 1013.7
20260502194545 60 292 7.0 14.0 0.00 0.00 0.00 36 1013.9
20260502193056 59 230 5.0 15.0 0.00 0.00 0.00 36 1014.2
20260502191542 59 304 3.0 14.0 0.00 0.00 0.00 37 1014.5
20260502190046 59 86 3.0 11.0 0.00 0.00 0.00 35 1014.7
20260502184550 58 197 6.0 12.0 0.00 0.00 0.00 36 1015.0
20260502183037 58 186 8.0 20.0 0.00 0.00 0.00 36 1015.2
20260502181544 57 198 5.0 12.0 0.00 0.00 0.00 37 1015.3
20260502163043 55 211 5.0 13.0 0.00 0.00 0.00 39 1017.0
20260502161540 54 254 2.0 14.0 0.00 0.00 0.00 43 1017.1
20260502151607 52 254 5.0 10.0 0.00 0.00 0.00 44 1017.5
20260502123042 37 231 4.0 8.0 0.00 0.00 0.00 73 1017.8
20260502121542 36 209 3.0 7.0 0.00 0.00 0.00 75 1017.7
20260502114537 34 213 3.0 5.0 0.00 0.00 0.00 77 1017.6
20260502113045 33 208 3.0 5.0 0.00 0.00 0.00 78 1017.4
20260502111541 33 204 2.0 5.0 0.00 0.00 0.00 77 1017.4
20260502110046 33 203 2.0 4.0 0.00 0.00 0.00 77 1017.4
20260502104541 34 198 2.0 4.0 0.00 0.00 0.00 76 1017.5
20260502103042 34 192 2.0 3.0 0.00 0.00 0.00 77 1017.5
20260502101556 34 197 2.0 4.0 0.00 0.00 0.00 76 1017.5
20260502070057 36 198 2.0 4.0 0.00 0.00 0.00 68 1017.7
20260502064537 36 199 2.0 4.0 0.00 0.00 0.00 68 1017.8
20260502063037 36 198 2.0 3.0 0.00 0.00 0.00 67 1017.9
20260502061543 37 200 2.0 4.0 0.00 0.00 0.00 65 1017.9
20260502060045 37 205 2.0 4.0 0.00 0.00 0.00 65 1017.9
20260502054557 37 275 2.0 3.0 0.00 0.00 0.00 64 1018.0
20260502053043 37 279 1.0 3.0 0.00 0.00 0.00 63 1018.0
20260502051537 38 280 1.0 3.0 0.00 0.00 0.00 62 1018.0
20260502050049 38 280 2.0 3.0 0.00 0.00 0.00 61 1017.9
20260502044541 39 281 1.0 3.0 0.00 0.00 0.00 60 1017.7
20260502043051 39 0 0.0 0.0 0.00 0.00 0.00 59 1017.8
20260502041609 39 0 0.0 0.0 0.00 0.00 0.00 58 1017.7
20260502040053 40 0 0.0 0.0 0.00 0.00 0.00 57 1017.8
20260502034547 41 0 0.0 0.0 0.00 0.00 0.00 55 1017.9